Flag for United Kingdom Weather past 2 weeks in Cambridge, England, United Kingdom

Now
54 °F

Scattered clouds.


Feels Like: 50 °F
Forecast: 46 / 58 °F
Wind: 12 mph from West

Location: Cambridge Airport

Current Time: Oct 22, 2014 at 5:26:36 PM

Latest Report: Oct 22, 2014 at 4:50 PM


Visibility: N/A

Pressure: 30.21 "Hg

Humidity: 72%

Dew point: 45 °F

Location of CambridgeLocation

Historic Weather in Cambridge — Graph

°F

Cambridge temperature yesterday

Maximum temperature yesterday: 57 °F (at 7:50 AM)
Minimum temperature yesterday: 46 °F (at 7:20 PM)
Average temperature yesterday: 53 °F

Past Weeks' High & Low Weather Summary

 TemperatureHumidityPressure
High66 °F (Oct 17, 1:20 PM)100% (Oct 10, 5:20 AM)30.24 "Hg (Oct 10, 5:20 AM)
Low39 °F (Oct 12, 8:20 AM)51% (Oct 7, 4:50 PM)29.30 "Hg (Oct 8, 2:50 PM)
Average57 °F82%29.71 "Hg
* Reported Oct 7 4:20 PM — Oct 22 4:20 PM, Cambridge, Weather by CustomWeather, © 2014

Note: Actual official high and low records may vary slightly from our data, if they occured in-between our weather recording intervals... More about our weather records

Advertising

Cambridge weather history for previous 24 hours

 ConditionsComfort  
Time TempWeatherWind HumidityBarometerVisibility
4:20 PM
Oct 22
54 °FPassing clouds.13 mph72%30.21 "HgN/A
2:50 PM55 °FScattered clouds.13 mph67%30.24 "HgN/A
2:20 PM55 °FPassing clouds.16 mph63%30.24 "HgN/A
1:50 PM55 °FPassing clouds.13 mph63%30.24 "HgN/A
1:20 PM55 °FPassing clouds.15 mph63%30.24 "HgN/A
12:50 PM55 °FPassing clouds.16 mph63%30.24 "HgN/A
12:20 PM54 °FPassing clouds.16 mph67%30.24 "HgN/A
11:50 AM54 °FPassing clouds.16 mph67%30.24 "HgN/A
11:20 AM54 °FPassing clouds.16 mph67%30.24 "HgN/A
10:50 AM52 °FPassing clouds.15 mph67%30.24 "HgN/A
10:20 AM50 °FPassing clouds.15 mph71%30.24 "HgN/A
9:50 AM48 °FPassing clouds.14 mph76%30.24 "HgN/A
9:20 AM46 °FPassing clouds.12 mph82%30.24 "HgN/A
8:20 AM45 °FPassing clouds.12 mph81%30.21 "HgN/A
7:50 AM45 °FClear.12 mph81%30.21 "Hg10 mi
7:20 AM46 °FPassing clouds.12 mph76%30.18 "HgN/A
6:50 AM46 °FPassing clouds.15 mph76%30.18 "HgN/A
5:50 AM46 °FPassing clouds.15 mph76%30.18 "HgN/A
7:50 PM
Oct 21
46 °FPassing clouds.24 mph71%29.92 "HgN/A
7:20 PM46 °FPassing clouds.18 mph71%29.89 "HgN/A
6:50 PM48 °FScattered clouds.25 mph71%29.86 "HgN/A
6:20 PM48 °FScattered clouds.23 mph71%29.86 "HgN/A
5:50 PM48 °FScattered clouds.25 mph71%29.83 "HgN/A
5:20 PM48 °FScattered clouds.28 mph76%29.80 "HgN/A
Weather by CustomWeather, © 2014

See weather overviewHow to use our weather pages